Regional Weather Roundup
Issued by NWS

Home | Current Version | Previous Version | Graphics & Text | Print | Product List | Glossary On
Versions: 1 2 3 4 5 6 7 8 9 10 11 12 13 14 15 16 17 18 19 20 21 22 23 24 25 26 27 28 29 30 31 32 33 34 35 36 37 38 39 40 41 42 43 44 45 46 47 48 49 50
859
ASUS43 KLOT 131608
RWRIL

ILLINOIS REGIONAL WEATHER ROUNDUP
NATIONAL WEATHER SERVICE CHICAGO/ROMEOVILLE IL
1000 AM CST SAT FEB 13 2016

NOTE: "FAIR" INDICATES FEW OR NO CLOUDS BELOW 12,000 FEET WITH NO
SIGNIFICANT WEATHER AND/OR OBSTRUCTIONS TO VISIBILITY.

* THESE STATIONS ARE NOT UNDER NWS QUALITY CONTROL. THEY ALSO MAY NOT
  REPORT WEATHER SUCH AS PRECIPITATION OR FOG.

ILZ001-002-007-009-015-016-024-131700-
NORTHWEST ILLINOIS

CITY           SKY/WX    TMP DP  RH WIND       PRES   REMARKS
MOLINE         SUNNY     11  -8  42 NW5       30.66S WCI   3
STERLING*      SUNNY     10  -8  44 W9        30.62S WCI  -2
SAVANNA*       SUNNY      8 -10  45 W6        30.66S WCI  -3
$$

ILZ003-004-008-010-011-017-018-131700-
NORTH CENTRAL ILLINOIS

CITY           SKY/WX    TMP DP  RH WIND       PRES   REMARKS
ROCKFORD       SUNNY      8  -8  48 NW10      30.63R WCI  -6
FREEPORT*      SUNNY      5  -9  52 W6        30.63S WCI  -5
ROCHELLE*      SUNNY      7  -7  51 NW8       30.62S WCI  -5
DE KALB*       SUNNY      7  -7  53 W10       30.59S WCI  -7
$$

ILZ005-006-012>014-019>023-131700-
NORTHEAST ILLINOIS

CITY           SKY/WX    TMP DP  RH WIND       PRES   REMARKS
CHICAGO-OHARE  MOSUNNY    8  -8  48 NW10      30.59R WCI  -6
CHICAGO-MIDWAY MOSUNNY   11  -9  40 NW14      30.59S WCI  -5
AURORA         SUNNY      9  -6  50 NW8       30.61R WCI  -3
LANSING*       SUNNY     11  -9  40 NW8       30.59S WCI  -1
JOLIET*        SUNNY     11  -6  46 NW7       30.62S WCI   0
WAUKEGAN       SUNNY      7  -7  52 W8        30.57R WCI  -6
DUPAGE AIRPORT SUNNY      8  -8  48 NW10      30.59R WCI  -6
KANKAKEE*      SUNNY     11  -8  43 NW8       30.62S WCI  -1
WHEELING       SUNNY      8  -7  50 NW9       30.60S WCI  -5
MORRIS*        SUNNY     10  -7  47 NW6       30.58S WCI   0
ROMEOVILLE*    SUNNY      9  -8  44 NW8       30.60S WCI  -3
NORTHERLY ISL    N/A     10  -6  48 W7          N/A  WCI  -1
$$

LMZ740>746-131700-
SOUTHERN LAKE MICHIGAN

STATION/POSITION SKY/WX   TEMP    WIND        PRES    VSBY  WAVE
                          AIR SEA DIR/SP/G                  HT/PER
                          (F)     (DEG/KT/KT) (MB)    (MI)  (FT/S)
HARRISON CRIB               8     310/ 13/ 16   N/A
BURNHAM HARBOR             11     260/  7/ 13   N/A
CALUMET HARBOR              7     290/  8/ 12 1034.7R
BURNS HARBOR               10     320/ 13/ 22 1035.2R
MICHIGAN CITY              11     270/ 18/ 23   N/A
$$

ILZ025>027-034>036-040-047-049-050-058-095>099-131700-
WEST-CENTRAL ILLINOIS

CITY           SKY/WX    TMP DP  RH WIND       PRES   REMARKS
QUINCY         SUNNY     10  -4  53 CALM      30.66F
GALESBURG*     SUNNY     10  -4  52 NW3       30.64F
MACOMB*        SUNNY     11  -6  47 CALM      30.68S
JACKSONVILLE*  SUNNY     14  -2  49 W3        30.66F
PITTSFIELD*    SUNNY     11  -4  50 CALM      30.68F
$$

ILZ028>032-037-038-041>044-048-051>054-059>061-131700-
CENTRAL ILLINOIS

CITY           SKY/WX    TMP DP  RH WIND       PRES   REMARKS
PONTIAC        SUNNY     11  -4  51 NW10      30.64S WCI  -3
BLOOMINGTON    SUNNY     10  -6  48 N7        30.62F WCI  -1
DECATUR        SUNNY     12  -4  48 NW6       30.64R WCI   3
PEORIA         SUNNY     12  -9  38 NW8       30.65F WCI   0
LACON*         SUNNY     10  -9  42 NW9       30.65S WCI  -3
LINCOLN*       SUNNY     12  -5  45 N5        30.66S WCI   4
SPRINGFIELD    SUNNY     13  -4  46 NW5       30.67R WCI   5
TAYLORVILLE    SUNNY     12   0  57 N5        30.65S WCI   4
$$

ILZ033-039-045-046-055>057-062-063-131700-
EAST-CENTRAL ILLINOIS

CITY           SKY/WX    TMP DP  RH WIND       PRES   REMARKS
CHAMPAIGN      SUNNY     12  -4  48 NW12      30.62S WCI  -2
RANTOUL*       SUNNY     12  -3  50 NW10      30.62S WCI  -1
MATTOON        SUNNY     11  -4  51 N7        30.63R WCI   0
PARIS*         SUNNY     13  -3  50 NW9       30.63S WCI   0
$$

ILZ079-100>102-131700-
SOUTHWEST ILLINOIS

CITY           SKY/WX    TMP DP  RH WIND       PRES   REMARKS
BELLEVILLE     CLOUDY    17   1  49 VRB6      30.66F WCI   8
CAHOKIA*       CLOUDY    17  -1  45 N8        30.68F WCI   7
SPARTA*        CLOUDY    15   3  59 N5        30.67F WCI   8
$$

ILZ064>066-069>071-074>076-080>082-084>086-088>090-092>094-131700-
SOUTH-CENTRAL ILLINOIS

CITY           SKY/WX    TMP DP  RH WIND       PRES   REMARKS
CARBONDALE     CLOUDY    18   3  52 N5        30.66F WCI  11
CAIRO*         CLOUDY    20   9  62 N10       30.65S WCI   9
EFFINGHAM*     SUNNY     14   1  54 NW7       30.66R WCI   4
MARION         PTSUNNY   19   3  49 N9        30.65F WCI   9
MT. VERNON     PTSUNNY   16   1  53 N6        30.66R WCI   7
CENTRALIA*     PTSUNNY   16   4  59 N6        30.65F WCI   7
SALEM*         CLOUDY    16   2  54 N7        30.66R WCI   6
METROPOLIS*    CLOUDY    20   6  56 N9        30.64F WCI   9
$$

ILZ067-068-072-073-078-083-087-091-131700-
SOUTHEAST ILLINOIS

CITY           SKY/WX    TMP DP  RH WIND       PRES   REMARKS
LAWRENCEVILLE  MOSUNNY   16  -2  45 N10       30.65S WCI   4
FLORA*         SUNNY     17  -1  44 N7        30.66R WCI   8
FAIRFIELD*     SUNNY     17   2  54 N5        30.65S WCI   9
HARRISBURG*    SUNNY     17   5  58 NW8       30.66S WCI   7
ROBINSON*      SUNNY     14  -4  45 N6        30.66R WCI   5
CARMI*         SUNNY     17   4  58 N10       30.64F WCI   5
$$

ABBREVIATIONS USED IN REMARKS
   TC - TEMPERATURE IN CELSIUS
  WCI - WIND CHILL INDEX
   HX - HEAT INDEX
  VSB - VISIBILITY
$$





USA.gov is the U.S. government's official web portal to all federal, state and local government web resources and services.